Location: Complexul Astronomic Baia Mare
(47.6577°N, 23.5639°E)
Time: 05:49:55
(UTC+03:00)

ISS - Pass Details

Date: 12 March 2017
Orbit: 399 x 409 km, 51.6° (Epoch: 30 March)

Event Time Altitude Azimuth Distance (km) Brightness Sun altitude
Exits shadow 05:24:05 24° 297° (WNW) 906 -2.5 -14.4°
Maximum altitude 05:25:40 41° 354° (N) 611 -2.9 -14.1°
Drops below altitude 10° 05:28:50 10° 67° (ENE) 1,481 0.4 -13.6°
Sets 05:31:00 0° 75° (ENE) 2,344 2.0 -13.2°
